Weather Roundup
Issued by NWS

Home | Current Version | Previous Version | Text Only | Print | Product List | Glossary On
Versions: 1 2 3 4 5 6 7 8 9 10 11 12 13 14 15 16 17 18 19 20 21 22 23 24 25 26 27 28 29 30 31 32 33 34 35 36 37 38 39 40 41 42 43 44 45 46 47 48 49 50
417
NZUS93 KARX 051759
HRRWXR

CURRENT HOURLY OBSERVATIONS ACROSS
MUCH OF THE UPPER MISSISSIPPI VALLEY
NATIONAL WEATHER SERVICE LA CROSSE WI
100 PM CDT THU MAY 05 2016


...SOUTHEAST MINNESOTA...


CITY           SKY/WX    TMP DP  RH WIND       PRES   REMARKS
ROCHESTER      SUNNY     63  32  31 VRB7      30.07F
ROCHESTER/MAYO FAIR      61  30  30 W8        30.06S
WINONA         SUNNY     63  32  31 NE3       30.05F
AUSTIN         SUNNY     63  28  27 SW3       30.04F
ALBERT LEA     SUNNY     66  27  22 S6        30.05F
DODGE CENTER   SUNNY     66  28  24 W10       30.04F
PRESTON        SUNNY     60  31  33 W7        30.06F
OWATONNA       SUNNY     68  25  19 S8        30.04F
FARIBAULT      NOT AVBL
$$

...ELSEWHERE IN MINNESOTA...


CITY           SKY/WX    TMP DP  RH WIND       PRES   REMARKS
MINNEAPOLIS    LGT RAIN  64  36  35 SW6       30.03S
INTNL FALLS    SUNNY     79  40  24 SW16G24   29.78F
DULUTH         MOSUNNY   65  35  33 SW17      29.93F
RED WING       LGT RAIN  63  34  34 CALM      30.03F
REDWOOD FALLS  SUNNY     75  33  21 S10       29.99F
MANKATO        SUNNY     68  28  22 W13       30.03F
WORTHINGTON    SUNNY     70  36  28 SW10      30.04F
FAIRMONT       SUNNY     66  32  28 W9        30.04F
$$

...SOUTHWEST WISCONSIN...


CITY           SKY/WX    TMP DP  RH WIND       PRES   REMARKS
LA CROSSE      SUNNY     62  33  33 NW5       30.05F
PRAIRIE DU CHI SUNNY     61  31  31 NW10      30.06F
BOSCOBEL       SUNNY     65  36  34 VRB3      30.04F
LONE ROCK      NOT AVBL
PLATTEVILLE    SUNNY     59  38  45 N6        30.05F
FORT MC COY    SUNNY     62  32  32 W9        30.05F
MAUSTON-NEW LI CLEAR     60  37  40 W10       30.04S
VIROQUA        FAIR      59  32  36 CALM      30.06F
WIS DELLS      SUNNY     60  33  35 NW5       30.04F
$$

...ELSEWHERE IN WISCONSIN...


CITY           SKY/WX    TMP DP  RH WIND       PRES   REMARKS
MILWAUKEE      SUNNY     53  39  59 NE12      30.03F
MADISON        SUNNY     60  36  40 VRB5      30.02F
GREEN BAY      SUNNY     58  40  51 NW7       30.02F
EAU CLAIRE     NOT AVBL
BLACK RVR FLS  FAIR      62  28  28 W6        30.04F
MEDFORD        SUNNY     58  34  40 W8        30.02F
WAUSAU         SUNNY     63  31  30 W7        29.99F
WIS RAPIDS     SUNNY     62  27  26 VRB5      30.03F
MARSHFIELD     SUNNY     61  29  29 VRB7      30.02F
RICE LAKE      MOSUNNY   63  28  26 W12       30.03F
$$

...NORTHEAST IOWA...


CITY           SKY/WX    TMP DP  RH WIND       PRES   REMARKS
WATERLOO       SUNNY     61  34  36 NW3       30.07F
DUBUQUE        SUNNY     60  42  51 N8        30.06F
DECORAH        SUNNY     61  34  36 NW7       30.05F
MASON CITY     SUNNY     66  30  26 SW7       30.07F
CHARLES CITY   SUNNY     59  30  33 VRB5      30.08F
OELWEIN        SUNNY     61  32  33 N6G12     30.07F
$$

...ELSEWHERE IN IOWA...


CITY           SKY/WX    TMP DP  RH WIND       PRES   REMARKS
DES MOINES     MOSUNNY   64  30  27 SE6       30.10S
IOWA CITY      SUNNY     61  39  44 NW6       30.08F
FORT DODGE     SUNNY     66  37  34 NW3       30.08F
MARSHALLTOWN   MOSUNNY   63  30  28 VRB3      30.07F
CEDAR RAPIDS   SUNNY     62  40  44 VRB3      30.06F
$$

...NORTHERN ILLINOIS...


CITY           SKY/WX    TMP DP  RH WIND       PRES   REMARKS
CHICAGO-OHARE  SUNNY     59  41  51 N8        30.00F
CHICAGO-MIDWAY SUNNY     57  41  55 N13G23    30.01F
MOLINE         SUNNY     62  39  42 NE9       30.05F
ROCKFORD       SUNNY     61  41  47 NE6       30.04F
PEORIA         SUNNY     60  43  53 NE10      30.03F
$$

NOTE: "FAIR" INDICATES FEW OR NO CLOUDS BELOW 12,000 FEET WITH NO
SIGNIFICANT WEATHER AND/OR OBSTRUCTIONS TO VISIBILITY. WIND
SPEEDS ARE IN MILES-PER-HOUR.




USA.gov is the U.S. government's official web portal to all federal, state and local government web resources and services.